Location: Proctor
(47.8934°N, 114.3048°W)
Time: 21:42:26
(UTC+00:00)

Tiros 1 despin weight - Pass Details

Date: 03 July 2024
Orbit: 576 x 620 km, 48.2° (Epoch: 19 July)

Event Time Altitude Azimuth Distance (km) Brightness Sun altitude
Rises 17:49:15 0° 265° (W) 2,870 ? 56.4°
Reaches altitude 10° 17:51:33 10° 266° (W) 1,972 ? 56.7°
Maximum altitude 17:56:06 87° 356° (N) 624 ? 57.3°
Drops below altitude 10° 18:00:41 10° 86° (E) 1,987 ? 57.9°
Sets 18:03:01 0° 87° (E) 2,894 ? 58.2°
